Погода в Комболче

Эфиопия     11°08′14″N   39°37′46″E
темп.,
°C
ветер,
м/с
пор.,
м/с
влажн.,
%
обл.,
%
осадки,
мм/ч
давл.,
гПа
погр.,
м
24 сентября, пт
пт2400:00+14зюз22795 0.6 101518
03:00+14зюз127633 0.8 101412
06:00+15зюз117646 0.4 101511
09:00+19всв12635 1.0 1015683
12:00+21всв355510 0.6 10141646
15:00+21всв455069 0.7 10111967
18:00+18св126146 0.1 101211
21:00+17ю225895 0.1 101527
25 сентября, сб
сб2500:00+15юз2279100 0.4 101757
03:00+15зюз227484 0.6 101523
06:00+16зсз017099 0.2 101611
09:00+17ссз0172100 0.9 101861
12:00+16з3376100 0.5 1017145
15:00+22всв344888 0.5 10122142
18:00+17всв226795 0.1 101416
21:00+14ююз4585100 1.1 101892
26 сентября, вс
вс2600:00+14зюз338479 1.3 101764
03:00+14з227621 1.6 101516
06:00+13з127835 0.1 101714
09:00+18с236157 0.2 1017781
12:00+21ссв354542 0.0 10152070
15:00+22св5642100 0.0 10122370
18:00+18в11565 0.0 101311
21:00+17юз114978 0.0 101613
27 сентября, пн
пн2700:00+15з115733 0.0 101512
03:00+14з22634 0.0 101514
06:00+13з22665 0.0 101614
09:00+20с24475 0.0 10161206
12:00+22ссв453872 0.0 10142464
15:00+22ссв453547 0.0 10112590
18:00+18св225298 0.0 101311
21:00+17з114799 0.0 101511
28 сентября, вт
вт2800:00+15зюз11557 0.0 101511
03:00+14з225923 0.0 101416
06:00+14з226171 0.0 101614
09:00+20с36425 0.0 10151522
12:00+23ссв55335 0.0 10132486
15:00+23ссв453484 0.0 10102577
18:00+18с225189 0.0 101213
21:00+18зсз224782 0.0 101519